Flag for U.S.A. Weather past 2 weeks in Rapid City, South Dakota, U.S.A.

Now
48 °F

Mostly cloudy.


Feels Like: 46 °F
Forecast: 41 / 48 °F
Wind: 5 mph from West

Location: Ellsworth Air Force Base

Current Time: Apr 18, 2015 at 3:55:33 AM

Latest Report: Apr 18, 2015 at 2:58 AM


Visibility: 10 mi

Pressure: 30.03 "Hg

Humidity: 99%

Dew point: 47 °F

Location of Rapid CityLocation

Historic Weather in Rapid City — Graph

°F

Rapid City temperature yesterday

Maximum temperature yesterday: 59 °F (at 1:58 PM)
Minimum temperature yesterday: 36 °F (at 5:58 AM)
Average temperature yesterday: 50 °F

Past Weeks' High & Low Weather Summary

 TemperatureHumidityPressure
High81 °F (Apr 14, 3:58 PM)100% (Apr 6, 9:58 PM)30.36 "Hg (Apr 6, 9:58 PM)
Low16 °F (Apr 3, 4:58 AM)12% (Apr 11, 5:58 PM)29.49 "Hg (Apr 12, 2:58 AM)
Average46 °F54%29.97 "Hg
* Reported Apr 3 1:58 AM — Apr 18 1:58 AM, Rapid City, Weather by CustomWeather, © 2015

Note: Actual official high and low records may vary slightly from our data, if they occured in-between our weather recording intervals... More about our weather records

Advertising

Rapid City weather history for previous 24 hours

 ConditionsComfort  
Time TempWeatherWind HumidityBarometerVisibility
1:58 AM
Sat, Apr 18
48 °FOvercast.5 mph93%30.05 "Hg10 mi
12:58 AM49 °FOvercast.2 mph91%30.07 "Hg10 mi
11:58 PM
Fri, Apr 17
48 °FOvercast.6 mph97%30.10 "Hg10 mi
11:04 PM48 °FMostly cloudy.5 mph94%30.10 "Hg10 mi
10:58 PM48 °FLight rain. Mostly cloudy.6 mph94%30.12 "Hg10 mi
9:58 PM49 °FMostly cloudy.12 mph90%30.13 "Hg10 mi
8:58 PM50 °FPassing clouds.8 mph78%30.14 "Hg10 mi
7:58 PM51 °FPartly cloudy.9 mph64%30.13 "Hg10 mi
6:58 PM53 °FPartly sunny.9 mph55%30.12 "Hg10 mi
5:58 PM55 °FOvercast.9 mph49%30.13 "Hg10 mi
4:58 PM54 °FScattered clouds.9 mph50%30.14 "Hg10 mi
3:58 PM58 °FOvercast.17 mph38%30.13 "Hg10 mi
2:58 PM58 °FOvercast.5 mph38%30.14 "Hg10 mi
1:58 PM59 °FPartly sunny.6 mph37%30.16 "Hg10 mi
12:58 PM56 °FOvercast.6 mph39%30.18 "Hg10 mi
11:58 AM54 °FOvercast.7 mph47%30.20 "Hg10 mi
10:58 AM52 °FMostly cloudy.No wind48%30.22 "Hg10 mi
9:58 AM50 °FMostly cloudy.8 mph47%30.23 "Hg10 mi
8:58 AM49 °FOvercast.10 mph45%30.24 "Hg10 mi
7:58 AM48 °FPartly sunny.6 mph50%30.24 "Hg9 mi
6:58 AM40 °FPartly sunny.2 mph69%30.24 "Hg10 mi
5:58 AM36 °FPassing clouds.10 mph74%30.24 "Hg10 mi
4:58 AM38 °FClear.5 mph68%30.23 "Hg10 mi
3:58 AM47 °FClear.8 mph47%30.20 "Hg10 mi
Weather by CustomWeather, © 2015

See weather overviewHow to use our weather pages